Hourly Data Report for May 01, 2015

All times are specified in Local Standard Time (LST). Add 1 hour to adjust for Daylight Saving Time where and when it is observed.

CHARLOTTETOWN A
PRINCE EDWARD ISLAND

46°17'21.000" N
63°07'09.000" W
48.50 m
8300301
71706
YYG

Download Data

Hourly Data (May 2015)
Hourly Data Report for May 1, 2015
Temp Definition
°C
Dew Point Temp Definition
°C
Rel Hum Definition
%
Wind Dir Definition
10's deg

Wind Spd Definition
km/h
Visibility Definition
km
Stn Press Definition
kPa
Hmdx Definition


Wind Chill Definition


Weather Definition


TIME
00:00 Legend Double Dagger 0.2 -0.5 95 1 15 9.7 100.86     Fog
01:00 Legend Double Dagger 0.1 -0.6 95 36 14 9.7 100.85     Fog
02:00 Legend Double Dagger 0.1 -0.6 95 35 9 9.7 100.86     Fog
03:00 Legend Double Dagger 0.1 -0.6 95 35 10 9.7 100.87     Fog
04:00 Legend Double Dagger 0.1 -0.6 95 1 13 8.1 100.85     Fog
05:00 Legend Double Dagger 0.1 -0.6 95 36 10 8.1 100.87     Fog
06:00 Legend Double Dagger 0.3 -0.6 94 1 14 12.9 100.91     LegendNANA
07:00 Legend Double Dagger 1.1 -0.4 90 36 14 16.1 100.96     LegendNANA
08:00 Legend Double Dagger 1.9 -0.2 86 1 17 16.1 101.00     Mostly Cloudy
09:00 Legend Double Dagger 2.8 -0.3 80 1 18 19.3 101.02     LegendNANA
10:00 Legend Double Dagger 3.4 0.5 81 1 19 19.3 101.02     LegendNANA
11:00 Legend Double Dagger 4.1 0.6 78 36 15 24.1 101.02     Mostly Cloudy
12:00 Legend Double Dagger 4.9 0.7 74 3 19 24.1 100.99     LegendNANA
13:00 Legend Double Dagger 5.4 0.4 70 4 25 24.1 100.98     LegendNANA
14:00 Legend Double Dagger 5.2 -0.6 66 3 26 24.1 100.98     Mostly Cloudy
15:00 Legend Double Dagger 4.8 -0.4 69 2 18 24.1 100.99     LegendNANA
16:00 Legend Double Dagger 4.5 -0.1 72 1 16 24.1 100.98     LegendNANA
17:00 Legend Double Dagger 3.5 -0.7 74 3 13 24.1 101.01     Mostly Cloudy
18:00 Legend Double Dagger 3.1 -0.9 75 1 9 24.1 101.01     LegendNANA
19:00 Legend Double Dagger 2.2 -0.7 81 36 12 24.1 101.05     LegendNANA
20:00 Legend Double Dagger 1.5 -0.4 87 1 10 24.1 101.09     Mostly Cloudy
21:00 Legend Double Dagger 1.0 -0.6 89 1 5 24.1 101.12     LegendNANA
22:00 Legend Double Dagger 0.7 -0.6 91 33 4 24.1 101.12     LegendNANA
23:00 Legend Double Dagger 0.4 -0.6 93 36 2 24.1 101.12     Cloudy

Notes on Data Quality.

Legend

  • E = Estimated
  • M = Missing
  • NA = Not Available
  • ‡ = Partner data that is not subject to review by the National Climate Archives
Date modified: